THY771 EDDH-LTFM

Flight info

Callsign THY771
Flight time 2h 38m
Altitude 35000
Route AMLUH2G/33 AMLUH M852 DENIX DCT ZUCKA DCT OMELO DCT ODLIV DCT MAVOR DCT UVERA DCT BIVBU DCT BUVAK DCT RIXEN
Aircraft A321/M-SDE3FGHIRWY/LB1

Departure

Time 2026-04-25 15:12
Airport Hamburg Helmut Schmidt Airport (EDDH)

Arrival

Time 2026-04-25 17:50
Airport İstanbul Airport (LTFM)
Time Latitude Longitude Altitude Speed Heading
2026-04-25 14:56 53.63413 10.00327 46 ft 0 kts 85°
2026-04-25 15:04 53.63413 10.00324 46 ft 2 kts 85°
2026-04-25 15:04 53.63411 10.00282 48 ft 4 kts 85°
2026-04-25 15:05 53.63410 10.00247 48 ft 4 kts 105°
2026-04-25 15:05 53.63423 10.00222 45 ft 4 kts 174°
2026-04-25 15:05 53.63445 10.00219 45 ft 1 kts 176°
2026-04-25 15:06 53.63446 10.00219 48 ft 0 kts 176°
2026-04-25 15:08 53.63445 10.00219 48 ft 0 kts 176°
2026-04-25 15:09 53.63424 10.00221 48 ft 6 kts 176°
2026-04-25 15:09 53.63380 10.00227 48 ft 7 kts 175°
2026-04-25 15:09 53.63226 10.00247 48 ft 12 kts 175°
2026-04-25 15:10 53.63137 10.00258 48 ft 13 kts 175°
2026-04-25 15:10 53.63048 10.00242 46 ft 14 kts 210°
2026-04-25 15:10 53.62887 10.00067 48 ft 14 kts 213°
2026-04-25 15:11 53.62839 9.99948 47 ft 14 kts 245°
2026-04-25 15:11 53.62806 9.99803 45 ft 10 kts 287°
2026-04-25 15:11 53.62847 9.99763 45 ft 7 kts 334°
2026-04-25 15:12 53.63574 9.99133 48 ft 122 kts 333°
2026-04-25 15:12 53.64463 9.98366 127 ft 162 kts 328°
2026-04-25 15:12 53.65468 9.97540 836 ft 162 kts 327°
2026-04-25 15:12 53.65812 9.97259 1114 ft 163 kts 329°
2026-04-25 15:13 53.67538 9.95815 2089 ft 176 kts 327°
2026-04-25 15:13 53.70045 9.94676 3081 ft 199 kts 352°
2026-04-25 15:13 53.71424 9.94686 3821 ft 198 kts 353°
2026-04-25 15:14 53.72794 9.95333 4472 ft 219 kts 22°
2026-04-25 15:14 53.73801 9.97391 5052 ft 250 kts 61°
2026-04-25 15:14 53.74178 10.00330 5633 ft 260 kts 76°
2026-04-25 15:14 53.74066 10.03443 6177 ft 273 kts 102°
2026-04-25 15:15 53.73304 10.06471 6485 ft 292 kts 121°
2026-04-25 15:15 53.72227 10.09550 6671 ft 315 kts 120°
2026-04-25 15:15 53.71119 10.12800 7208 ft 323 kts 119°
2026-04-25 15:15 53.69972 10.16098 7840 ft 328 kts 126°
2026-04-25 15:16 53.68484 10.18956 8465 ft 330 kts 142°
2026-04-25 15:16 53.66591 10.21114 9108 ft 328 kts 160°
2026-04-25 15:16 53.62259 10.23384 10354 ft 332 kts 172°
2026-04-25 15:17 53.57499 10.25506 10632 ft 375 kts 171°
2026-04-25 15:17 53.54914 10.26678 10736 ft 394 kts 171°
2026-04-25 15:17 53.52229 10.27916 11141 ft 404 kts 170°
2026-04-25 15:18 53.49546 10.29169 11707 ft 408 kts 170°
2026-04-25 15:18 53.44020 10.31733 12896 ft 415 kts 170°
2026-04-25 15:18 53.41222 10.33009 13511 ft 419 kts 170°
2026-04-25 15:19 53.38395 10.34285 14081 ft 422 kts 171°
2026-04-25 15:19 53.37435 10.34716 14262 ft 424 kts 171°
2026-04-25 15:19 53.32672 10.36848 15156 ft 429 kts 170°
2026-04-25 15:19 53.29774 10.38142 15696 ft 433 kts 170°
2026-04-25 15:20 53.26894 10.39427 16239 ft 435 kts 170°
2026-04-25 15:20 53.23962 10.40736 16811 ft 438 kts 170°
2026-04-25 15:20 53.21008 10.42055 17362 ft 441 kts 170°
2026-04-25 15:20 53.18029 10.43386 17903 ft 445 kts 169°
2026-04-25 15:21 53.15090 10.45133 18405 ft 454 kts 159°
2026-04-25 15:21 53.12299 10.47665 18834 ft 461 kts 149°
2026-04-25 15:21 53.09751 10.50945 19268 ft 466 kts 139°
2026-04-25 15:21 53.07466 10.54712 19699 ft 470 kts 136°
2026-04-25 15:22 53.05156 10.58569 20137 ft 472 kts 136°
2026-04-25 15:22 53.02824 10.62431 20560 ft 475 kts 136°
2026-04-25 15:22 53.00471 10.66312 20986 ft 478 kts 136°
2026-04-25 15:22 52.98107 10.70204 21424 ft 480 kts 136°
2026-04-25 15:23 52.95728 10.74121 21824 ft 483 kts 136°
2026-04-25 15:23 52.94146 10.76724 22089 ft 485 kts 136°
2026-04-25 15:23 52.91746 10.80673 22478 ft 488 kts 136°
2026-04-25 15:23 52.89331 10.84647 22881 ft 490 kts 136°
2026-04-25 15:24 52.86115 10.89922 23401 ft 494 kts 136°
2026-04-25 15:24 52.83670 10.93931 23758 ft 496 kts 136°
2026-04-25 15:24 52.81208 10.97951 24074 ft 499 kts 136°
2026-04-25 15:24 52.80371 10.99316 24182 ft 499 kts 136°
2026-04-25 15:25 52.76245 11.06032 24719 ft 503 kts 136°
2026-04-25 15:25 52.74591 11.08720 24923 ft 505 kts 136°
2026-04-25 15:25 52.72084 11.12793 25234 ft 507 kts 136°
2026-04-25 15:25 52.68720 11.18251 25689 ft 508 kts 136°
2026-04-25 15:26 52.66225 11.22290 25995 ft 510 kts 136°
2026-04-25 15:26 52.63689 11.26385 26300 ft 512 kts 136°
2026-04-25 15:26 52.61964 11.29161 26505 ft 514 kts 136°
2026-04-25 15:26 52.59436 11.33219 26813 ft 516 kts 136°
2026-04-25 15:27 52.56860 11.37347 27138 ft 518 kts 136°
2026-04-25 15:27 52.54272 11.41489 27419 ft 520 kts 136°
2026-04-25 15:27 52.49096 11.49771 28255 ft 519 kts 136°
2026-04-25 15:28 52.45677 11.55233 28808 ft 518 kts 136°
2026-04-25 15:28 52.43931 11.58021 29053 ft 518 kts 136°
2026-04-25 15:28 52.41355 11.62121 29507 ft 516 kts 136°
2026-04-25 15:28 52.38819 11.66149 29948 ft 514 kts 136°
2026-04-25 15:29 52.36250 11.70216 30330 ft 513 kts 136°
2026-04-25 15:29 52.33684 11.74258 30688 ft 512 kts 136°
2026-04-25 15:29 52.31119 11.78291 31037 ft 511 kts 136°
2026-04-25 15:29 52.28562 11.82314 31386 ft 510 kts 136°
2026-04-25 15:30 52.26010 11.86335 31742 ft 509 kts 136°
2026-04-25 15:30 52.23466 11.90348 32084 ft 508 kts 136°
2026-04-25 15:30 52.20925 11.94342 32446 ft 507 kts 136°
2026-04-25 15:30 52.18420 11.98262 32802 ft 505 kts 136°
2026-04-25 15:31 52.15886 12.02219 33149 ft 504 kts 136°
2026-04-25 15:31 52.13353 12.06167 33475 ft 503 kts 136°
2026-04-25 15:31 52.10832 12.10091 33825 ft 502 kts 136°
2026-04-25 15:31 52.08311 12.14006 34132 ft 500 kts 137°
2026-04-25 15:32 52.05796 12.17912 34398 ft 500 kts 137°
2026-04-25 15:32 52.03285 12.21811 34666 ft 499 kts 137°
2026-04-25 15:32 52.00773 12.25707 34898 ft 499 kts 137°
2026-04-25 15:33 51.95739 12.33485 35008 ft 500 kts 137°
2026-04-25 15:33 51.93250 12.37313 35004 ft 500 kts 137°
2026-04-25 15:33 51.88199 12.45063 35005 ft 500 kts 137°
2026-04-25 15:34 51.83145 12.52804 35009 ft 501 kts 137°
2026-04-25 15:34 51.78934 12.59233 35006 ft 501 kts 137°
2026-04-25 15:35 51.70509 12.72067 35018 ft 501 kts 138°
2026-04-25 15:36 51.62869 12.83602 35017 ft 502 kts 138°
2026-04-25 15:36 51.57769 12.91280 35015 ft 502 kts 138°
2026-04-25 15:37 51.52702 12.98909 34989 ft 503 kts 138°
2026-04-25 15:37 51.47597 13.06575 34994 ft 503 kts 138°
2026-04-25 15:38 51.42474 13.14221 35025 ft 503 kts 138°
2026-04-25 15:38 51.37347 13.21835 35029 ft 502 kts 139°
2026-04-25 15:39 51.32252 13.29373 35031 ft 502 kts 139°
2026-04-25 15:39 51.27121 13.36957 34984 ft 502 kts 139°
2026-04-25 15:40 51.22858 13.43246 35001 ft 503 kts 139°
2026-04-25 15:40 51.16846 13.52088 35021 ft 503 kts 139°
2026-04-25 15:41 51.11694 13.59616 35028 ft 503 kts 139°
2026-04-25 15:41 51.06580 13.67080 35029 ft 502 kts 139°
2026-04-25 15:42 51.01429 13.74590 35019 ft 502 kts 139°
2026-04-25 15:42 50.96281 13.82070 35006 ft 502 kts 139°
2026-04-25 15:43 50.91120 13.89520 35011 ft 502 kts 139°
2026-04-25 15:43 50.85983 13.96913 35017 ft 503 kts 137°
2026-04-25 15:44 50.81596 14.05508 35022 ft 504 kts 122°
2026-04-25 15:44 50.77834 14.14865 35024 ft 505 kts 122°
2026-04-25 15:45 50.74038 14.24186 35033 ft 504 kts 123°
2026-04-25 15:45 50.70884 14.31904 35034 ft 504 kts 123°
2026-04-25 15:46 50.66473 14.42678 35010 ft 502 kts 123°
2026-04-25 15:46 50.62688 14.51909 35016 ft 501 kts 123°
2026-04-25 15:47 50.58906 14.61104 35036 ft 500 kts 123°
2026-04-25 15:47 50.55147 14.70224 35019 ft 500 kts 123°
2026-04-25 15:48 50.51351 14.79376 35011 ft 500 kts 123°
2026-04-25 15:48 50.47349 14.88273 35006 ft 498 kts 133°
2026-04-25 15:49 50.42634 14.96239 35007 ft 498 kts 134°
2026-04-25 15:49 50.37946 15.04123 35005 ft 498 kts 134°
2026-04-25 15:50 50.33228 15.12062 34987 ft 497 kts 134°
2026-04-25 15:50 50.28522 15.19969 34999 ft 496 kts 134°
2026-04-25 15:51 50.24602 15.26515 34996 ft 496 kts 134°
2026-04-25 15:51 50.19119 15.35640 35008 ft 496 kts 135°
2026-04-25 15:52 50.14392 15.43482 34996 ft 496 kts 135°
2026-04-25 15:52 50.09667 15.51318 34996 ft 496 kts 135°
2026-04-25 15:53 50.04936 15.59129 34995 ft 496 kts 135°
2026-04-25 15:53 50.00225 15.66877 34995 ft 496 kts 135°
2026-04-25 15:54 49.95481 15.74663 35001 ft 496 kts 135°
2026-04-25 15:54 49.90734 15.82427 34987 ft 496 kts 135°
2026-04-25 15:55 49.85982 15.90175 34991 ft 496 kts 135°
2026-04-25 15:55 49.81252 15.97850 34987 ft 496 kts 135°
2026-04-25 15:56 49.76487 16.05558 34993 ft 495 kts 135°
2026-04-25 15:56 49.71724 16.13249 34983 ft 495 kts 135°
2026-04-25 15:57 49.66964 16.20922 34992 ft 495 kts 135°
2026-04-25 15:57 49.62229 16.28517 34998 ft 495 kts 136°
2026-04-25 15:58 49.57454 16.36151 34997 ft 494 kts 136°
2026-04-25 15:58 49.52671 16.43780 34993 ft 495 kts 136°
2026-04-25 15:59 49.47882 16.51413 34988 ft 496 kts 136°
2026-04-25 15:59 49.43117 16.58977 34953 ft 496 kts 137°
2026-04-25 16:00 49.39083 16.65349 34963 ft 497 kts 138°
2026-04-25 16:00 49.33471 16.74176 34981 ft 498 kts 138°
2026-04-25 16:01 49.28634 16.81785 34981 ft 498 kts 138°
2026-04-25 16:01 49.23827 16.89330 34987 ft 498 kts 138°
2026-04-25 16:02 49.18980 16.96903 34981 ft 498 kts 138°
2026-04-25 16:02 49.14126 17.04461 34957 ft 498 kts 139°
2026-04-25 16:03 49.09277 17.11998 34971 ft 497 kts 139°
2026-04-25 16:03 49.04431 17.19507 34973 ft 497 kts 139°
2026-04-25 16:04 48.99613 17.26951 34972 ft 497 kts 139°
2026-04-25 16:04 48.94756 17.34433 34970 ft 497 kts 139°
2026-04-25 16:05 48.89898 17.41889 34968 ft 496 kts 139°
2026-04-25 16:06 48.82639 17.53009 34939 ft 497 kts 137°
2026-04-25 16:06 48.78212 17.61121 34942 ft 500 kts 132°
2026-04-25 16:07 48.73843 17.69320 34961 ft 500 kts 132°
2026-04-25 16:07 48.69462 17.77511 34959 ft 501 kts 132°
2026-04-25 16:08 48.65072 17.85690 34957 ft 501 kts 133°
2026-04-25 16:08 48.60705 17.93796 34960 ft 501 kts 133°
2026-04-25 16:09 48.56313 18.01958 34959 ft 501 kts 133°
2026-04-25 16:09 48.51914 18.10104 34936 ft 500 kts 133°
2026-04-25 16:10 48.47506 18.18214 34961 ft 500 kts 133°
2026-04-25 16:10 48.43119 18.26252 34965 ft 500 kts 133°
2026-04-25 16:11 48.38701 18.34328 34967 ft 500 kts 133°
2026-04-25 16:11 48.34280 18.42393 34968 ft 500 kts 133°
2026-04-25 16:12 48.29859 18.50456 34965 ft 500 kts 133°
2026-04-25 16:12 48.25457 18.58442 34967 ft 500 kts 133°
2026-04-25 16:13 48.21026 18.66474 34942 ft 500 kts 133°
2026-04-25 16:13 48.16582 18.74490 34956 ft 500 kts 133°
2026-04-25 16:14 48.12130 18.82474 34964 ft 499 kts 133°
2026-04-25 16:14 48.07708 18.90390 34962 ft 499 kts 133°
2026-04-25 16:15 48.03255 18.98357 34968 ft 499 kts 134°
2026-04-25 16:15 47.98794 19.06308 34967 ft 499 kts 133°
2026-04-25 16:16 47.94324 19.14232 34970 ft 499 kts 133°
2026-04-25 16:16 47.89885 19.22104 34966 ft 499 kts 133°
2026-04-25 16:17 47.85412 19.30014 34955 ft 499 kts 133°
2026-04-25 16:17 47.80930 19.37906 34961 ft 499 kts 133°
2026-04-25 16:18 47.76442 19.45789 34967 ft 499 kts 134°
2026-04-25 16:18 47.71944 19.53647 34967 ft 499 kts 134°
2026-04-25 16:19 47.67473 19.61443 34967 ft 499 kts 134°
2026-04-25 16:19 47.62970 19.69287 34973 ft 499 kts 134°
2026-04-25 16:20 47.56206 19.81013 34938 ft 498 kts 134°
2026-04-25 16:21 47.49478 19.92639 34952 ft 498 kts 134°
2026-04-25 16:21 47.44962 20.00408 34956 ft 498 kts 134°
2026-04-25 16:22 47.40439 20.08164 34956 ft 498 kts 134°
2026-04-25 16:22 47.35914 20.15910 34959 ft 499 kts 134°
2026-04-25 16:23 47.31414 20.23599 34960 ft 498 kts 134°
2026-04-25 16:23 47.26876 20.31325 34965 ft 499 kts 134°
2026-04-25 16:24 47.22331 20.39034 34950 ft 499 kts 134°
2026-04-25 16:24 47.17807 20.46769 34966 ft 499 kts 132°
2026-04-25 16:25 47.13461 20.54725 34961 ft 499 kts 130°
2026-04-25 16:25 47.09211 20.62707 34956 ft 499 kts 130°
2026-04-25 16:26 47.04890 20.70679 34956 ft 499 kts 131°
2026-04-25 16:26 47.00524 20.78585 34956 ft 499 kts 131°
2026-04-25 16:27 46.96148 20.86474 34962 ft 499 kts 131°
2026-04-25 16:27 46.91811 20.94310 34960 ft 499 kts 131°
2026-04-25 16:28 46.87445 21.02196 34962 ft 499 kts 131°
2026-04-25 16:28 46.83075 21.10051 34962 ft 498 kts 131°
2026-04-25 16:29 46.78690 21.17892 34963 ft 498 kts 131°
2026-04-25 16:29 46.74334 21.25668 34961 ft 498 kts 131°
2026-04-25 16:30 46.69945 21.33483 34964 ft 498 kts 131°
2026-04-25 16:30 46.65557 21.41297 34965 ft 498 kts 131°
2026-04-25 16:31 46.61157 21.49096 34961 ft 498 kts 131°
2026-04-25 16:31 46.56783 21.56822 34954 ft 498 kts 131°
2026-04-25 16:32 46.52377 21.64582 34964 ft 498 kts 131°
2026-04-25 16:32 46.47968 21.72319 34968 ft 497 kts 131°
2026-04-25 16:33 46.43585 21.79999 34973 ft 497 kts 131°
2026-04-25 16:33 46.39178 21.87713 34976 ft 497 kts 131°
2026-04-25 16:34 46.34757 21.95407 34975 ft 497 kts 131°
2026-04-25 16:34 46.30331 22.03082 34974 ft 497 kts 131°
2026-04-25 16:35 46.25903 22.10752 34975 ft 497 kts 131°
2026-04-25 16:35 46.21505 22.18347 34967 ft 496 kts 131°
2026-04-25 16:36 46.17076 22.25981 34972 ft 496 kts 131°
2026-04-25 16:36 46.12641 22.33600 34973 ft 496 kts 131°
2026-04-25 16:37 46.08199 22.41207 34972 ft 496 kts 131°
2026-04-25 16:37 46.03785 22.48752 34971 ft 496 kts 131°
2026-04-25 16:38 45.99335 22.56344 34971 ft 496 kts 131°
2026-04-25 16:38 45.94886 22.63924 34973 ft 496 kts 131°
2026-04-25 16:39 45.90425 22.71488 34972 ft 496 kts 131°
2026-04-25 16:39 45.85985 22.78965 34983 ft 495 kts 131°
2026-04-25 16:40 45.81519 22.86479 34981 ft 495 kts 131°
2026-04-25 16:40 45.77056 22.93984 34990 ft 495 kts 131°
2026-04-25 16:41 45.72593 23.01484 34991 ft 495 kts 131°
2026-04-25 16:41 45.65908 23.12643 34995 ft 495 kts 131°
2026-04-25 16:42 45.61423 23.20107 34996 ft 495 kts 131°
2026-04-25 16:42 45.56944 23.27561 34992 ft 494 kts 130°
2026-04-25 16:43 45.52457 23.34991 35005 ft 494 kts 131°
2026-04-25 16:43 45.47992 23.42364 35010 ft 495 kts 131°
2026-04-25 16:44 45.43493 23.49778 35012 ft 494 kts 131°
2026-04-25 16:44 45.38993 23.57171 35008 ft 494 kts 131°
2026-04-25 16:45 45.34493 23.64554 35013 ft 494 kts 131°
2026-04-25 16:45 45.30023 23.71868 35009 ft 493 kts 131°
2026-04-25 16:46 45.25514 23.79217 34993 ft 494 kts 131°
2026-04-25 16:46 45.22496 23.84128 35014 ft 494 kts 131°
2026-04-25 16:47 45.16491 23.93881 35009 ft 493 kts 131°
2026-04-25 16:47 45.12003 24.01135 34998 ft 493 kts 131°
2026-04-25 16:48 45.07486 24.08415 35013 ft 492 kts 131°
2026-04-25 16:48 45.02963 24.15687 34999 ft 492 kts 131°
2026-04-25 16:49 44.98437 24.22945 34999 ft 493 kts 131°
2026-04-25 16:49 44.93939 24.30154 35002 ft 493 kts 131°
2026-04-25 16:50 44.89432 24.37431 35012 ft 492 kts 130°
2026-04-25 16:50 44.85075 24.44851 35016 ft 491 kts 129°
2026-04-25 16:51 44.80758 24.52296 35015 ft 490 kts 129°
2026-04-25 16:51 44.77143 24.58442 35015 ft 490 kts 129°
2026-04-25 16:52 44.72054 24.66981 35022 ft 490 kts 129°
2026-04-25 16:52 44.67673 24.74319 35018 ft 490 kts 129°
2026-04-25 16:53 44.61103 24.85308 35014 ft 490 kts 129°
2026-04-25 16:54 44.56719 24.92612 35017 ft 489 kts 129°
2026-04-25 16:54 44.52373 24.99846 35017 ft 488 kts 129°
2026-04-25 16:55 44.47997 25.07114 35017 ft 488 kts 129°
2026-04-25 16:55 44.43613 25.14355 35022 ft 487 kts 129°
2026-04-25 16:56 44.39263 25.21537 35023 ft 487 kts 129°
2026-04-25 16:56 44.34876 25.28756 35025 ft 487 kts 129°
2026-04-25 16:57 44.30488 25.35953 35025 ft 486 kts 129°
2026-04-25 16:57 44.26102 25.43137 35013 ft 486 kts 129°
2026-04-25 16:58 44.21718 25.50300 35022 ft 485 kts 129°
2026-04-25 16:58 44.17363 25.57393 35026 ft 484 kts 129°
2026-04-25 16:59 44.12985 25.64516 35017 ft 484 kts 129°
2026-04-25 16:59 44.08605 25.71619 35022 ft 483 kts 129°
2026-04-25 17:00 44.04220 25.78700 35014 ft 483 kts 129°
2026-04-25 17:00 43.99872 25.85713 35006 ft 482 kts 129°
2026-04-25 17:01 43.95485 25.92771 35006 ft 483 kts 129°
2026-04-25 17:01 43.91103 25.99811 35005 ft 482 kts 129°
2026-04-25 17:02 43.86721 26.06821 35008 ft 480 kts 129°
2026-04-25 17:02 43.82380 26.13764 35006 ft 480 kts 129°
2026-04-25 17:03 43.78004 26.20739 35006 ft 479 kts 129°
2026-04-25 17:03 43.73626 26.27700 35006 ft 479 kts 129°
2026-04-25 17:04 43.69246 26.34649 35006 ft 479 kts 129°
2026-04-25 17:04 43.64891 26.41542 35009 ft 479 kts 129°
2026-04-25 17:05 43.60505 26.48468 35012 ft 479 kts 129°
2026-04-25 17:05 43.53915 26.58825 35005 ft 479 kts 129°
2026-04-25 17:06 43.49526 26.65718 35005 ft 479 kts 129°
2026-04-25 17:06 43.45159 26.72562 35003 ft 478 kts 129°
2026-04-25 17:07 43.40761 26.79430 35002 ft 479 kts 129°
2026-04-25 17:07 43.36353 26.86290 34994 ft 479 kts 129°
2026-04-25 17:08 43.31945 26.93147 35006 ft 479 kts 130°
2026-04-25 17:08 43.27571 26.99946 35003 ft 478 kts 130°
2026-04-25 17:09 43.23159 27.06770 34998 ft 477 kts 130°
2026-04-25 17:09 43.18748 27.13572 34999 ft 477 kts 130°
2026-04-25 17:10 43.14344 27.20360 35010 ft 476 kts 130°
2026-04-25 17:10 43.09939 27.27127 35013 ft 476 kts 130°
2026-04-25 17:11 43.05561 27.33820 35011 ft 475 kts 130°
2026-04-25 17:11 43.01157 27.40542 35014 ft 474 kts 130°
2026-04-25 17:12 42.96754 27.47229 35015 ft 473 kts 131°
2026-04-25 17:12 42.92323 27.53853 35017 ft 472 kts 131°
2026-04-25 17:13 42.89381 27.58214 35021 ft 472 kts 131°
2026-04-25 17:13 42.83480 27.66975 35037 ft 471 kts 131°
2026-04-25 17:14 42.79053 27.73536 35039 ft 470 kts 131°
2026-04-25 17:14 42.74632 27.80073 35036 ft 469 kts 131°
2026-04-25 17:15 42.70250 27.86556 35032 ft 469 kts 131°
2026-04-25 17:15 42.65839 27.93073 35036 ft 468 kts 131°
2026-04-25 17:16 42.61418 27.99560 35030 ft 468 kts 132°
2026-04-25 17:16 42.59207 28.02798 34787 ft 468 kts 131°
2026-04-25 17:16 42.56979 28.06065 33846 ft 475 kts 131°
2026-04-25 17:17 42.54725 28.09370 32871 ft 480 kts 131°
2026-04-25 17:17 42.52456 28.12689 31856 ft 479 kts 131°
2026-04-25 17:17 42.50214 28.15963 30561 ft 480 kts 132°
2026-04-25 17:17 42.47956 28.19251 29579 ft 473 kts 132°
2026-04-25 17:18 42.45731 28.22489 28575 ft 465 kts 132°
2026-04-25 17:18 42.43547 28.25671 27598 ft 458 kts 132°
2026-04-25 17:18 42.41393 28.28806 26539 ft 453 kts 133°
2026-04-25 17:18 42.39256 28.31909 25643 ft 446 kts 133°
2026-04-25 17:19 42.37145 28.34965 25086 ft 446 kts 133°
2026-04-25 17:19 42.35024 28.38034 24376 ft 447 kts 133°
2026-04-25 17:19 42.32906 28.41100 23697 ft 446 kts 133°
2026-04-25 17:19 42.30821 28.44120 22945 ft 444 kts 133°
2026-04-25 17:20 42.28724 28.47154 22296 ft 440 kts 133°
2026-04-25 17:20 42.26645 28.50159 21624 ft 436 kts 133°
2026-04-25 17:20 42.24580 28.53142 20964 ft 433 kts 133°
2026-04-25 17:20 42.22529 28.56101 20305 ft 430 kts 133°
2026-04-25 17:21 42.20474 28.59047 19638 ft 432 kts 133°
2026-04-25 17:21 42.18419 28.61991 19000 ft 430 kts 133°
2026-04-25 17:21 42.16379 28.64920 18542 ft 425 kts 133°
2026-04-25 17:21 42.14387 28.67781 18309 ft 420 kts 133°
2026-04-25 17:22 42.12415 28.70612 18040 ft 409 kts 133°
2026-04-25 17:22 42.11743 28.71532 17947 ft 405 kts 136°
2026-04-25 17:22 42.07992 28.75009 17500 ft 386 kts 156°
2026-04-25 17:22 42.05511 28.76223 17244 ft 374 kts 166°
2026-04-25 17:23 42.02975 28.76799 16987 ft 367 kts 177°
2026-04-25 17:23 42.00432 28.76914 16732 ft 365 kts 179°
2026-04-25 17:23 41.97904 28.77012 16476 ft 363 kts 179°
2026-04-25 17:23 41.95388 28.77110 16217 ft 361 kts 179°
2026-04-25 17:24 41.92883 28.77208 15969 ft 360 kts 179°
2026-04-25 17:24 41.90386 28.77308 15720 ft 358 kts 179°
2026-04-25 17:24 41.87900 28.77409 15473 ft 357 kts 179°
2026-04-25 17:24 41.85459 28.77507 15232 ft 355 kts 179°
2026-04-25 17:25 41.82999 28.77604 14996 ft 350 kts 179°
2026-04-25 17:25 41.80599 28.77672 14748 ft 340 kts 183°
2026-04-25 17:25 41.78304 28.77190 14499 ft 330 kts 198°
2026-04-25 17:25 41.76231 28.76001 14270 ft 320 kts 212°
2026-04-25 17:26 41.74483 28.74240 14074 ft 310 kts 225°
2026-04-25 17:26 41.73114 28.72051 14016 ft 306 kts 235°
2026-04-25 17:26 41.71873 28.69736 14025 ft 306 kts 235°
2026-04-25 17:26 41.70620 28.67435 14027 ft 306 kts 234°
2026-04-25 17:27 41.69360 28.65139 14026 ft 306 kts 234°
2026-04-25 17:27 41.68113 28.62872 14028 ft 306 kts 234°
2026-04-25 17:27 41.66850 28.60576 14027 ft 307 kts 234°
2026-04-25 17:27 41.66423 28.59798 14020 ft 307 kts 234°
2026-04-25 17:28 41.64321 28.55971 14023 ft 307 kts 234°
2026-04-25 17:28 41.63057 28.53667 14025 ft 307 kts 234°
2026-04-25 17:28 41.61791 28.51364 14023 ft 308 kts 234°
2026-04-25 17:28 41.60526 28.49060 14025 ft 307 kts 234°
2026-04-25 17:29 41.59262 28.46756 14024 ft 308 kts 234°
2026-04-25 17:29 41.57998 28.44450 14025 ft 308 kts 234°
2026-04-25 17:29 41.56735 28.42145 14023 ft 307 kts 234°
2026-04-25 17:29 41.55472 28.39841 14021 ft 307 kts 234°
2026-04-25 17:30 41.54225 28.37572 14022 ft 307 kts 234°
2026-04-25 17:30 41.52953 28.35277 14024 ft 308 kts 234°
2026-04-25 17:30 41.51665 28.32993 14025 ft 308 kts 233°
2026-04-25 17:30 41.50372 28.30720 14020 ft 308 kts 233°
2026-04-25 17:31 41.49075 28.28449 14016 ft 307 kts 233°
2026-04-25 17:31 41.47781 28.26183 14016 ft 307 kts 233°
2026-04-25 17:31 41.46486 28.23912 14015 ft 307 kts 233°
2026-04-25 17:31 41.45192 28.21639 14016 ft 308 kts 233°
2026-04-25 17:32 41.43900 28.19368 14017 ft 308 kts 233°
2026-04-25 17:32 41.42604 28.17097 14015 ft 308 kts 233°
2026-04-25 17:32 41.41328 28.14861 14012 ft 307 kts 233°
2026-04-25 17:32 41.39966 28.12684 13734 ft 305 kts 222°
2026-04-25 17:33 41.38181 28.11187 13466 ft 305 kts 201°
2026-04-25 17:33 41.36110 28.10673 13204 ft 305 kts 179°
2026-04-25 17:33 41.34042 28.11220 12945 ft 305 kts 157°
2026-04-25 17:33 41.32171 28.12557 12686 ft 305 kts 150°
2026-04-25 17:34 41.30341 28.13954 12338 ft 303 kts 151°
2026-04-25 17:34 41.28511 28.15349 11895 ft 304 kts 151°
2026-04-25 17:34 41.26673 28.16742 11442 ft 305 kts 151°
2026-04-25 17:34 41.24833 28.18132 11075 ft 303 kts 152°
2026-04-25 17:35 41.23020 28.19503 10704 ft 302 kts 152°
2026-04-25 17:35 41.21212 28.20872 10296 ft 297 kts 152°
2026-04-25 17:35 41.19420 28.22226 9648 ft 295 kts 152°
2026-04-25 17:35 41.17664 28.23549 9135 ft 285 kts 152°
2026-04-25 17:36 41.15974 28.24827 8708 ft 278 kts 152°
2026-04-25 17:36 41.14284 28.26101 8268 ft 280 kts 152°
2026-04-25 17:36 41.12580 28.27380 7831 ft 282 kts 151°
2026-04-25 17:36 41.10865 28.28668 7383 ft 283 kts 151°
2026-04-25 17:37 41.09157 28.29953 6954 ft 281 kts 151°
2026-04-25 17:37 41.07485 28.31209 6533 ft 279 kts 150°
2026-04-25 17:37 41.05810 28.32470 6086 ft 277 kts 150°
2026-04-25 17:37 41.04144 28.33720 5653 ft 274 kts 150°
2026-04-25 17:38 41.02480 28.34970 5308 ft 272 kts 150°
2026-04-25 17:38 41.01928 28.35385 5273 ft 269 kts 150°
2026-04-25 17:38 40.99318 28.37376 5063 ft 252 kts 144°
2026-04-25 17:38 40.98158 28.39011 4978 ft 239 kts 119°
2026-04-25 17:39 40.97608 28.41051 4989 ft 237 kts 96°
2026-04-25 17:39 40.97572 28.43229 4992 ft 238 kts 89°
2026-04-25 17:39 40.97583 28.45418 4993 ft 238 kts 89°
2026-04-25 17:39 40.97589 28.47608 4995 ft 238 kts 90°
2026-04-25 17:40 40.97592 28.49765 4994 ft 238 kts 90°
2026-04-25 17:40 40.97595 28.51955 4998 ft 240 kts 90°
2026-04-25 17:40 40.97270 28.54237 5003 ft 264 kts 115°
2026-04-25 17:40 40.96142 28.56168 5008 ft 269 kts 138°
2026-04-25 17:41 40.94551 28.57433 5000 ft 269 kts 162°
2026-04-25 17:41 40.92797 28.58253 4991 ft 262 kts 152°
2026-04-25 17:41 40.91411 28.59671 4992 ft 245 kts 129°
2026-04-25 17:41 40.90589 28.61534 4993 ft 229 kts 108°
2026-04-25 17:42 40.90345 28.63623 5003 ft 234 kts 86°
2026-04-25 17:42 40.90697 28.65717 5006 ft 235 kts 66°
2026-04-25 17:42 40.91389 28.67682 5005 ft 238 kts 58°
2026-04-25 17:42 40.92431 28.69346 5010 ft 239 kts 40°
2026-04-25 17:43 40.93768 28.70518 5021 ft 226 kts 28°
2026-04-25 17:43 40.95135 28.71513 5009 ft 223 kts 28°
2026-04-25 17:43 40.96495 28.72508 5009 ft 224 kts 27°
2026-04-25 17:43 40.97946 28.73207 5009 ft 222 kts
2026-04-25 17:44 40.99485 28.73297 5012 ft 222 kts 358°
2026-04-25 17:44 41.01022 28.73263 5009 ft 220 kts 358°
2026-04-25 17:44 41.02559 28.73232 4870 ft 220 kts 358°
2026-04-25 17:44 41.04080 28.73203 4607 ft 218 kts 358°
2026-04-25 17:45 41.05587 28.73174 4317 ft 216 kts 358°
2026-04-25 17:45 41.06074 28.73165 4235 ft 214 kts 358°
2026-04-25 17:45 41.08460 28.73119 3768 ft 196 kts 359°
2026-04-25 17:45 41.09774 28.73094 3518 ft 187 kts 359°
2026-04-25 17:46 41.11046 28.73069 3265 ft 179 kts 359°
2026-04-25 17:46 41.12267 28.73046 3032 ft 171 kts 359°
2026-04-25 17:46 41.13413 28.73023 2836 ft 158 kts 359°
2026-04-25 17:46 41.14479 28.73003 2619 ft 149 kts 359°
2026-04-25 17:47 41.15499 28.72983 2421 ft 146 kts 360°
2026-04-25 17:47 41.16510 28.72964 2225 ft 145 kts
2026-04-25 17:47 41.17511 28.72944 2041 ft 143 kts
2026-04-25 17:47 41.18506 28.72925 1843 ft 144 kts
2026-04-25 17:48 41.20514 28.72886 1455 ft 144 kts
2026-04-25 17:48 41.21511 28.72867 1267 ft 143 kts
2026-04-25 17:48 41.22494 28.72848 1076 ft 143 kts
2026-04-25 17:49 41.23494 28.72829 881 ft 144 kts
2026-04-25 17:49 41.24499 28.72809 740 ft 145 kts
2026-04-25 17:49 41.25511 28.72790 522 ft 145 kts
2026-04-25 17:49 41.26523 28.72767 348 ft 144 kts
2026-04-25 17:50 41.27403 28.72752 330 ft 106 kts 359°
2026-04-25 17:50 41.28003 28.72734 333 ft 61 kts 359°
2026-04-25 17:50 41.28228 28.72748 331 ft 26 kts 13°
2026-04-25 17:50 41.28374 28.72811 333 ft 16 kts 29°
2026-04-25 17:51 41.28441 28.72860 334 ft 5 kts 28°
2026-04-25 17:51 41.28472 28.72884 331 ft 6 kts 40°
2026-04-25 17:51 41.28486 28.72931 333 ft 5 kts 114°
2026-04-25 17:51 41.28452 28.72951 334 ft 6 kts 163°
2026-04-25 17:52 41.28402 28.72956 332 ft 8 kts 183°
2026-04-25 17:52 41.28382 28.72954 330 ft 9 kts 182°
2026-04-25 17:52 41.28264 28.72955 331 ft 12 kts 177°
2026-04-25 17:52 41.28179 28.72960 330 ft 13 kts 179°
2026-04-25 17:53 41.28115 28.72962 332 ft 14 kts 179°
2026-04-25 17:53 41.27974 28.72964 333 ft 16 kts 178°
2026-04-25 17:53 41.27857 28.72967 332 ft 18 kts 179°
2026-04-25 17:53 41.27735 28.72969 334 ft 17 kts 179°
2026-04-25 17:54 41.27613 28.72972 333 ft 18 kts 179°
2026-04-25 17:54 41.27484 28.72976 334 ft 19 kts 180°
2026-04-25 17:54 41.27394 28.72977 334 ft 20 kts 179°
2026-04-25 17:54 41.27250 28.72983 332 ft 21 kts 179°
2026-04-25 17:55 41.27108 28.72984 333 ft 21 kts 179°
2026-04-25 17:55 41.26960 28.72987 332 ft 20 kts 178°
2026-04-25 17:55 41.26865 28.73049 331 ft 16 kts 98°
2026-04-25 17:55 41.26868 28.73246 333 ft 12 kts 89°
2026-04-25 17:56 41.26828 28.73327 330 ft 12 kts 172°
2026-04-25 17:56 41.26773 28.73333 334 ft 12 kts 179°
2026-04-25 17:56 41.26699 28.73366 333 ft 10 kts 112°
2026-04-25 17:56 41.26705 28.73428 332 ft 7 kts 84°
2026-04-25 17:57 41.26705 28.73457 334 ft 0 kts 91°